Regional Weather Roundup
Issued by NWS Sterling, VA

Home | Current Version | Previous Version | Text Only | Print | Product List | Glossary Off
Versions: 1 2 3 4 5 6 7 8 9 10 11 12 13 14 15 16 17 18 19 20 21 22 23 24 25 26

000
ASUS41 KLWX 252210
RWRLWX

REGIONAL WEATHER ROUNDUP
NATIONAL WEATHER SERVICE BALTIMORE MD/WASHINGTON DC
600 PM EDT WED MAY 25 2016

Note: "FAIR" indicates few or no clouds below 12,000 feet
with no significant weather and/or obstructions to visibility.
 TC=TEMPERATURE CELSIUS

 * =Non NWS site. Station does not report precipitation (e.g. rain,
    snow, etc.), thunder, or fog.

DCZ001-MDZ009-015-VAZ040>042-051-053>054-252300-
WASHINGTON METRO

CITY           SKY/WX    TMP DP  RH WIND       PRES   REMARKS
WASHINGTON NAT PTSUNNY   85  53  33 VRB6      30.10F
DULLES         PTSUNNY   83  52  34 SW6       30.11F
ANDREWS AFB    SUNNY     83  52  33 SW10      30.10F
FT BELVOIR     FAIR      84  53  34 S3        30.10F
QUANTICO       FAIR      81  59  47 S5        30.11F
COLLEGE PARK*  FAIR      84  50  30 W3        30.10F
LEESBURG*      FAIR      86  55  35 SW5       30.11F
MANASSAS*      SUNNY     84  52  32 S3        30.11F

$$

MDZ006>007-011-014-252300-
BALTIMORE METRO

CITY           SKY/WX    TMP DP  RH WIND       PRES   REMARKS
BWI AIRPORT    PTSUNNY   84  51  31 W8        30.09F
MD SCIENCE CTR   N/A     85  49  28 MISG      30.08F
MARTIN STATE   PTSUNNY   81  63  54 SE5       30.11F
ANNAPOLIS      MOSUNNY   78  60  53 VRB5      30.09F
FORT MEADE*    SUNNY     82  50  32 W5        30.12F

$$

MDZ012-015-019>023-252300-
MARYLAND EASTERN SHORE

CITY           SKY/WX    TMP DP  RH WIND       PRES   REMARKS
OCEAN CITY     PTSUNNY   83  50  31 W10G17    30.12R
SALISBURY      MOSUNNY   83  53  35 W8        30.12S
BAY BRIDGE AP* MOSUNNY   84  52  32 S7        30.10F
CAMBRIDGE*     MOSUNNY   82  52  34 W6        30.11F
EASTON*        SUNNY     84  59  42 SW8       30.14F

$$

MDZ017>025-252300-
SOUTHERN MARYLAND

CITY           SKY/WX    TMP DP  RH WIND       PRES   REMARKS
PATUXENT RIVER MOSUNNY   80  54  40 SE6       30.11F
ST INIGOES     SUNNY     82  57  42 SE7       30.11F
LEONARDTOWN*   SUNNY     82  50  32 SW3       30.13F

$$

MDZ003>005-252300-
NORTH CENTRAL MARYLAND

CITY           SKY/WX    TMP DP  RH WIND       PRES   REMARKS
FREDERICK*     SUNNY     84  61  45 SW7       30.13F
HAGERSTOWN APT SUNNY     85  43  22 VRB5      30.10F
WESTMINSTER*   NOT AVBL

$$

MDZ501>502-252300-
WESTERN MARYLAND

CITY           SKY/WX    TMP DP  RH WIND       PRES   REMARKS
OAKLAND*       SUNNY     73  39  29 W8        30.22S
CUMBERLAND*    SUNNY     86  48  26 NE3       30.13S

$$

VAZ025>031-252300-
SHENANDOAH VALLEY

CITY           SKY/WX    TMP DP  RH WIND       PRES   REMARKS
WINCHESTER*    FAIR      84  52  32 SE6       30.11F
FRONT ROYAL*   FAIR      82  54  36 S3        30.10F
LURAY*         FAIR      84  54  34 S5        30.12F
NEW MARKET*    FAIR      84  54  35 SW3       30.10F
STAUNTON*      FAIR      82  53  36 S5        30.15F
WAYNESBORO*    FAIR      82  45  27 CALM      30.15F

$$

WVZ021-048>050-054>055-252300-
EASTERN WEST VIRGINIA PANHANDLE

CITY           SKY/WX    TMP DP  RH WIND       PRES   REMARKS
MARTINSBURG    FAIR      83  53  35 S5        30.09F
PETERSBURG*    FAIR      88  49  26 CALM      30.12S

$$

VAZ036>039-050-252300-
CENTRAL FOOTHILLS

CITY           SKY/WX    TMP DP  RH WIND       PRES   REMARKS
CHARLOTTESVILL FAIR      84  56  38 S8        30.11F
CULPEPER*      FAIR      85  55  34 SW5       30.12S
ORANGE*        FAIR      84  52  32 SW6       30.13F
GORDONSVILLE*  FAIR      84  56  38 S5        30.11F
WARRENTON*     FAIR      85  44  23 CALM      30.11F

$$

VAZ055>057-252300-
NORTH AND CENTRAL PIEDMONT

CITY           SKY/WX    TMP DP  RH WIND       PRES   REMARKS
FREDERICKSBRG* FAIR      86  54  32 SW6       30.10F
STAFFORD*      FAIR      83  51  32 SW5       30.15F

$$

NCZ024-NYZ072-PAZ021-071-VAZ022-071-252300-
OTHER REGIONAL OBSERVATIONS

CITY           SKY/WX    TMP DP  RH WIND       PRES   REMARKS
NEW YORK CITY  SUNNY     85  44  23 VRB5      30.05S
PHILADELPHIA   PTSUNNY   87  46  24 SW13      30.07F
PITTSBURGH     PTSUNNY   82  47  29 SW8       30.12S
ROANOKE        FAIR      83  54  36 VRB6      30.16F
RICHMOND       PTSUNNY   85  54  34 W12       30.12F
RALEIGH        MOSUNNY   85  57  38 SW8       30.16S

$$

ANZ530>537-252300-
MARINE OBSERVATIONS

STATION/POSITION TIME  TEMP    WIND        PRES
                       AIR SEA DIR/SP/G
                 (UTC) (F)     (DEG/KT/KT) (MB)
THOMAS PT LIGHT  2200   75 63  170/ 12/ 13 1020.3F
BALT KEY BRIDGE  2100   83     280/  4/  4 1019.3S
COVE POINT       2100          180/  8/ 10 1020.7R
LEWISETTA        2100   74 69  120/ 10/ 11 1019.7R
SOLOMONS ISLAND  2100   81 65  240/  8/ 11   N/A
PINEY POINT      2100          160/  9/ 10   N/A

$$





USA.gov is the U.S. government's official web portal to all federal, state and local government web resources and services.